box saran
daftar
389sports

Jackpot

Texas Poker Multi Jackpot System

Kini Telah hadir Jackpot SUPER ROYAL FLUSH

Kini Telah hadir Jackpot 2000 (khusus table VIP keatas).

Ikutilah global jackpot yang tersedia di system kami, dengan system jackpot terbaru dan pertama di indonesia, anda dapat membeli jackpot dengan harga 100 rupiah saja dan menangkan hadiahnya hingga puluhan juta rupiah.

Jackpot bukanlah suatu keharusan untuk dibeli, namun kami memberikan suatu fitur tambahan untuk member tercinta dari www.389poker.co.

Terdapat tiga pilihan harga jackpot yang bisa anda beli yaitu :100,500,1000 dan 2000(khusus table VIP Keatas) rupiah.

Hadiah dari Multi jackpot system www.389poker.co

  1. full house x 10 harga jackpot yang anda beli.
      (contoh:anda membeli 1000 maka:1000 X10 = 10.000)
  2. four of kind x 250 harga jackpot yang anda beli
      (contoh:anda membeli 1000 maka:1000 X250 = 250.000)
  3. Straight flush x 1200
      (contoh:anda membeli 1000 maka:1000 X1200 = 1.200.000)
  4. Royal flush x 10000 harga jackpot yang anda beli
      (contoh:anda membeli 1000 maka:1000 X10000 = 10.000.000)
  5. SUPER ROYAL FLUSH x 30000 harga jackpot yang anda beli
      (contoh:anda membeli 1000 maka:1000 X30000 = 30.000.000)

Kondisi kartu

  1. full house adalah kondisi kartu dimana kartu anda dan kartu tengah dengan total 7 kartu bisa mendapatkan nilai 5 kartu dengan kombinasi 1 tris(three of kind) dan 1 pair, contoh 3 kartu 10 dan 2 kartu 5
  2. Four of kind adalah kondisi kartu dimana kartu anda dan kartu tengah dengan total 7 kartu bisa mendapatkan nilai 5 kartu dengan kombinasi 4 kartu yang sama jumlah dan 1 kartu apapun juga contoh anda mendapatkan 4 buah kartu angka 3 dan 1 kartu apapun.
  3. Staright flush adalah kondisi kartu dimana kartu anda dan kartu tengah dengan total 7 kartu bisa mendapatkan nilai 5 kartu dengan kombinasi seri / staright dengan kembang yang sama contoh : urutan kartu dari angka 5, 6, 7, 8 , 9 10 dengan kembang yg sama misalnya as hati
  4. Royal flush adalah kondisi kartu dimana kartu anda dan kartu tengah dengan total 7 kartu bisa mendapatkan nilai 5 kartu dengan kombinasi seri / staright dengan kembang yang sama tetapi kartu tersebut haruslah dimulai dari 10. contoh 10, Queen, Jack, King dan aces dengan kembang yang sama
  5. Super Royal flush adalah kondisi kartu dimana Kedua kartu anda digabung dengan 3 kartu pertama meja haruslah royal flush. contoh kartu anda 10,Queen kembang sama dan 3 kartu pertama meja adalah Jack, King dan aces dengan kembang yang sama

Demikian adalah penjelasan dari Multi Jackpot www.389poker.co terima kasih dan selamat bermain salam hoki dari kami

Texas Poker Jackpot Winner

TOP SUPER ROYAL FLUSH
No.TanggalNamaPriceWin
122/09 02:24TAUN101Super Royal flush30,000,000
221/09 14:11ROYALJOZZSuper Royal flush60,000,000
321/09 13:43BA_ATIYOSuper Royal flush6,000,000
421/09 12:23B8EKCBJIYMSuper Royal flush3,000,000
521/09 08:32TUPO25Super Royal flush3,000,000
TOP ROYAL FLUSH
No.TanggalNamaPriceWin
122/09 02:56AMARASULI8Royal flush5,000,000
222/09 02:54CARIDIRoyal flush500,000
322/09 02:46BD5217E2Royal flush2,000,000
422/09 02:42CS_JPQQRoyal flush2,000,000
522/09 02:40LAZUARDY92Royal flush20,000,000
TOP STRAIGHT FLUSH
No.TanggalNamaPriceWin
122/09 03:07FAIR_998Straight Flush120,000
222/09 03:06DIGIT22Straight Flush600,000
322/09 03:05JOLCAKEPStraight Flush120,000
422/09 03:03FROG88Straight Flush2,400,000
522/09 03:02CHOKEN04Straight Flush2,400,000
LATEST JACKPOT
No.TanggalNamaPriceWin
122/09 03:09LOMBAHA4NFull House1,000
222/09 03:09QAQAR1Full House2,000
322/09 03:09SKYLONG96Full House2,000
422/09 03:09XENIA93Full House5,000
522/09 03:09TOBA33Full House5,000
622/09 03:09UK52E78G1JFour Of A Kind125,000
722/09 03:09MANG_JUH4YFull House2,000
822/09 03:09IHSAN87Full House1,000
922/09 03:09BR012Full House5,000
1022/09 03:09LMPG88Full House2,000
1122/09 03:09RIVIKKMFull House1,000
1222/09 03:09XAVI1899Full House5,000
1322/09 03:09GHALIE15Full House10,000
1422/09 03:09QUEEN02Full House5,000
1522/09 03:09BIRINAHFull House10,000
1622/09 03:09KAPOK111Full House1,000
1722/09 03:09G20FIZX4R6Full House1,000
1822/09 03:09HUYTAN90Full House2,000
1922/09 03:09NEWLPS022Four Of A Kind50,000
2022/09 03:09ADAM28Full House5,000
2122/09 03:09JOKERS92Full House2,000
2222/09 03:09WAHYUNI998Full House2,000
2322/09 03:09MAPIA69Full House20,000
2422/09 03:09PEDITKERFull House2,000
2522/09 03:09RIJKIN4Full House5,000
2622/09 03:09RS08569122Four Of A Kind500,000
2722/09 03:09GRANAT078Full House5,000
2822/09 03:09GOIBDEPOFull House1,000
2922/09 03:09DJOKO1717Full House5,000
3022/09 03:09LINTASAN99Full House2,000
3122/09 03:09OLAY80Full House2,000
3222/09 03:09RENGSOGIFull House10,000
3322/09 03:09TARWAD86Full House20,000
3422/09 03:09BLAPOK_7Full House20,000
3522/09 03:09OTONGRFour Of A Kind50,000
3622/09 03:09MERCY_Full House2,000
3722/09 03:09KAMIKASEFull House2,000
3822/09 03:09KOE2Full House5,000
3922/09 03:09GONDES1122Full House10,000
4022/09 03:09DPTTJA90AN99Full House2,000
4122/09 03:09E8EC5AA7Full House2,000
4222/09 03:09CN0DQTECXCFull House2,000
4322/09 03:09SM4DKANCELFull House2,000
4422/09 03:09FADILLAH99Full House1,000
4522/09 03:09PAYJ00KFull House5,000
4622/09 03:09ASKOTFull House20,000
4722/09 03:09JTWANGI9Full House5,000
4822/09 03:08JUNIOR1Full House1,000
4922/09 03:08DNRD899Full House5,000
5022/09 03:08GANYANG27Full House10,000

Domino Multi Jackpot System

Ikutilah global jackpot yang tersedia di system kami, dengan system jackpot terbaru dan pertama di indonesia, anda dapat membeli jackpot dengan harga 100 rupiah saja dan menangkan hadiahnya hingga puluhan juta rupiah.

Jackpot bukanlah suatu keharusan untuk dibeli, namun kami memberikan suatu fitur tambahan untuk member tercinta dari www.389poker.co.

Terdapat tiga pilihan harga jackpot yang bisa anda beli yaitu :100,500 dan 1000 rupiah.

Hadiah dari Multi jackpot system www.389poker.co

  1. Murni Kecil x 50 harga jackpot yang anda beli.
      (contoh:anda membeli 1000 maka:1000 X 50 = 50.000)
  2. Murni Besar x 50 harga jackpot yang anda beli
      (contoh:anda membeli 1000 maka:1000 X 50 = 50.000)
  3. BALAK x 100 harga jackpot yang anda beli
      (contoh:anda membeli 1000 maka:1000 X 100 = 100.000)
  4. ENAM DEWA x 6666 harga jackpot yang anda beli
      (contoh:anda membeli 1000 maka:1000 X 6666 = 6.666.000)

Demikian adalah penjelasan dari Multi Jackpot www.389poker.co terima kasih dan selamat bermain salam hoki dari kami

Domino Jackpot Winner

TOP ENAM DEWA
No.TanggalNamaPriceWin
122/09 01:09WISMA92murni enam3,333,000
222/09 01:08ABAY888888murni enam3,333,000
322/09 00:44AMSEO99murni enam3,333,000
422/09 00:43DYCK22murni enam6,666,000
521/09 23:35TEMPE444murni enam666,600
TOP BALAK
No.TanggalNamaPriceWin
122/09 03:08PHCP123balak100,000
222/09 03:05IBP89725balak10,000
322/09 03:04KUDA5777balak100,000
422/09 03:03RA81ESbalak100,000
522/09 03:00SUMMON99balak50,000
LATEST JACKPOT
No.TanggalNamaPriceWin
122/09 03:09CAN83murni kecil5,000
222/09 03:08UCOXX_7263murni kecil50,000
322/09 03:08PHCP123balak100,000
422/09 03:08JPWINNER87murni besar50,000
522/09 03:08DADO378murni kecil25,000
622/09 03:07ZULSGPmurni kecil25,000
722/09 03:07MOBMAR72murni besar50,000
822/09 03:05IBP89725balak10,000
922/09 03:05SARFILO13murni besar5,000
1022/09 03:04KUDA5777balak100,000
1122/09 03:04SUMMON99murni besar25,000
1222/09 03:03RA81ESbalak100,000
1322/09 03:02LESYIANA66murni besar50,000
1422/09 03:01FIAN566murni kecil50,000
1522/09 03:01REVYmurni kecil5,000
1622/09 03:00SUMMON99balak50,000
1722/09 03:00GARANmurni besar50,000
1822/09 02:59AZH26murni kecil50,000
1922/09 02:59J4LI8888murni kecil25,000
2022/09 02:59JPWINNER87murni besar50,000
2122/09 02:58SATRIASJTmurni besar50,000
2222/09 02:58NYALANDARmurni besar5,000
2322/09 02:57GEGER057balak100,000
2422/09 02:57EEHWEH16murni kecil50,000
2522/09 02:56PKPUmurni besar25,000
2622/09 02:56GATHUK99lucky9910,000
2722/09 02:56LONTAR50murni kecil25,000
2822/09 02:56SO1818murni kecil25,000
2922/09 02:55VIOLET72murni besar50,000
3022/09 02:55BULUKS66murni kecil5,000
3122/09 02:53YUGHA_77murni besar25,000
3222/09 02:53C20IRUL455lucky9950,000
3322/09 02:53DEWAFM9191murni kecil25,000
3422/09 02:53RH4848murni kecil5,000
3522/09 02:52BEBEC98murni kecil50,000
3622/09 02:51PKPUmurni kecil25,000
3722/09 02:51DADO378murni kecil25,000
3822/09 02:51WINDSGOmurni kecil50,000
3922/09 02:50BLEWO9murni kecil25,000
4022/09 02:49JANUARY20murni kecil50,000
4122/09 02:49LIMCIAWMEbalak100,000
4222/09 02:48GOGOJMLmurni besar25,000
4322/09 02:48GARANmurni kecil50,000
4422/09 02:47PAPIIDDbalak50,000
4522/09 02:47BOBBY7balak100,000
4622/09 02:47PTR80Tmurni besar50,000
4722/09 02:47J4TI87murni besar25,000
4822/09 02:47BONZZ007murni besar50,000
4922/09 02:46PENJOL1975murni kecil50,000
5022/09 02:46POND9899murni besar5,000

Ceme Multi Jackpot System

Jackpot dilihat dari gabungan kartu pemain dengan kartu bandar. Bandar harus membeli jackpot sebanyak jumlah player yang sedang duduk. Sebagai contoh bila terdapat 3 pemain duduk bermain, dan bandar memutuskan untuk membeli jackpot Rp 1.000, maka pada periode tersebut bandar akan membeli jackpot sebanyak 3xRp1.000 = Rp3.000.

Jackpot bukanlah suatu keharusan untuk dibeli, namun kami memberikan suatu fitur tambahan untuk member tercinta dari www.389poker.co.

Terdapat tiga pilihan harga jackpot yang bisa anda beli yaitu :100,500 dan 1000 rupiah.

Hadiah dari Multi jackpot system www.389poker.co

  1. Murni Kecil x 50 harga jackpot yang anda beli.
      (contoh:anda membeli 1000 maka:1000 X 50 = 50.000)
  2. Murni Besar x 50 harga jackpot yang anda beli
      (contoh:anda membeli 1000 maka:1000 X 50 = 50.000)
  3. BALAK x 200 harga jackpot yang anda beli
      (contoh:anda membeli 1000 maka:1000 X 200 = 200.000)
  4. ENAM DEWA x 6666 harga jackpot yang anda beli
      (contoh:anda membeli 1000 maka:1000 X 6666 = 6.666.000)

Demikian adalah penjelasan dari Multi Jackpot www.389poker.co terima kasih dan selamat bermain salam hoki dari kami

Ceme Jackpot Winner

TOP ENAM DEWA
No.TanggalNamaPriceWin
122/09 02:18SGANTENG76murni enam666,600
222/09 02:15FUUD1111murni enam666,600
322/09 01:13ALUCARD27murni enam6,666,000
422/09 01:12MRET27murni enam3,333,000
522/09 00:58MARZO11murni enam6,666,000
TOP BALAK
No.TanggalNamaPriceWin
122/09 03:09NUZUL007balak200,000
222/09 03:09WIDIA11balak200,000
322/09 03:09JEJENG23balak20,000
422/09 03:08JOYCE22balak200,000
522/09 03:08OMP4Tbalak200,000
LATEST JACKPOT
No.TanggalNamaPriceWin
122/09 03:09NUZUL007balak200,000
222/09 03:09ASLIENmurni besar5,000
322/09 03:09SOLO138murni kecil50,000
422/09 03:09GSHT88murni kecil5,000
522/09 03:09WIDIA11balak200,000
622/09 03:09JEJENG23balak20,000
722/09 03:09PALASARI2murni besar50,000
822/09 03:09ARABIA22murni besar50,000
922/09 03:09B5522195murni besar5,000
1022/09 03:09LANA2887murni kecil25,000
1122/09 03:09DIMAS83murni kecil5,000
1222/09 03:09KUPLE212murni kecil5,000
1322/09 03:08BIBOY77murni besar50,000
1422/09 03:08M_AZHARI88murni besar5,000
1522/09 03:08JOSS321murni kecil5,000
1622/09 03:08JENTITITmurni kecil25,000
1722/09 03:08ELISYAHmurni kecil5,000
1822/09 03:08B4YU5Kmurni kecil50,000
1922/09 03:08NAMRAPUSmurni kecil50,000
2022/09 03:08F4A2D2D2murni kecil5,000
2122/09 03:08REFERAL88murni kecil50,000
2222/09 03:08JOYCE22balak200,000
2322/09 03:08OMP4Tbalak200,000
2422/09 03:08REEZHAL69murni kecil25,000
2522/09 03:08BANI1991murni kecil25,000
2622/09 03:08TOPWIN01murni besar50,000
2722/09 03:07AGOESS179murni kecil50,000
2822/09 03:07OPICK789murni kecil5,000
2922/09 03:07CF4712E1murni kecil25,000
3022/09 03:07JAMBU1207murni kecil25,000
3122/09 03:07OTEL313murni kecil5,000
3222/09 03:07WINS345murni kecil50,000
3322/09 03:07BEJO009murni kecil50,000
3422/09 03:07GARES68murni kecil50,000
3522/09 03:07TOPWIN01murni kecil50,000
3622/09 03:07NANDEO1murni kecil5,000
3722/09 03:07PALASARI2murni kecil50,000
3822/09 03:07LEMKAmurni kecil50,000
3922/09 03:07JAWA1976murni kecil50,000
4022/09 03:06JOSSS1996murni kecil50,000
4122/09 03:06LPUZOZP12Dmurni kecil5,000
4222/09 03:06RIBET78balak100,000
4322/09 03:06JOJO7070murni kecil5,000
4422/09 03:06KOKOROKO28balak200,000
4522/09 03:06OPERLAH12balak200,000
4622/09 03:05ROMILmurni kecil50,000
4722/09 03:05CIKKICIWmurni kecil25,000
4822/09 03:05B48R08945murni kecil5,000
4922/09 03:05HRP561978murni kecil50,000
5022/09 03:05SOVHIE2015murni kecil25,000